Weather History for Bozeman, MT

Change the Weather History Date:

Sunday, February 24, 2013

  Actual Average Record
Temperature  
Mean Temperature 21 °F 29 °F  
Max Temperature 31 °F 42 °F 66 °F (1995)
Min Temperature 10 °F 17 °F -35 °F (2003)
Degree Days  
Heating Degree Days 44    
Month to date heating degree days 932  
Since 1 July heating degree days 5567  
Cooling Degree Days 0    
Month to date cooling degree days 0  
Year to date cooling degree days 0  
Moisture  
Dew Point 12 °F    
Average Humidity 66    
Maximum Humidity 88    
Minimum Humidity 43    
Precipitation  
Precipitation 0.00 in 0.01 in 0.37 in (1996)
Month to date precipitation 0.07 0.35  
Year to date precipitation 0.31 0.83  
Snow  
Snow 0.00 in 0.20 in 2.60 in (1994)
Month to date snowfall 1.0 4.1  
Since 1 July snowfall 17.9 21.5  
Snow Depth 4.00 in    
Sea Level Pressure  
Sea Level Pressure 30.25 in    
Wind  
Wind Speed 7 mph (SE)    
Max Wind Speed 14 mph    
Max Gust Speed 16 mph    
Visibility 10 miles    
Events      
T = Trace of Precipitation, MM = Missing Value Source: NWS Daily Summary

Daily Weather History Graph

Daily Weather History Graph

Search for Another Location

Airport:

Trip Planner

Search our weather history database for the weather conditions in past years. The results will help you decide how hot, cold, wet, or windy it might be!

Date:

Astronomy

Feb. 24, 2013 Rise Set
Actual Time 7:11 AM MST 6:04 PM MST
Civil Twilight 6:41 AM MST 6:34 PM MST
Nautical Twilight 6:06 AM MST 7:09 PM MST
Astronomical Twilight 5:32 AM MST 7:43 PM MST
Moon 5:19 PM MST 6:11 AM MST
Length of Visible Light 11h 53m
Length of Day
10h 53m
Waxing Gibbous, 99% of the Moon is Illuminated
Feb 24
Waxing Gibbous
Feb 25
Full
Mar 4
Last Quarter
Mar 11
New
Mar 19
First Quarter

Hourly Weather History & Observations

Time (MST) Temp. Windchill Dew Point Humidity Pressure Visibility Wind Dir Wind Speed Gust Speed Precip Events Conditions
12:56 AM 24.8 °F 16.1 °F 21.2 °F 86% 30.05 in 10.0 mi South 8.1 mph - N/A   Overcast
1:56 AM 24.1 °F 13.7 °F 19.9 °F 84% 30.19 in 10.0 mi SSW 10.4 mph - N/A   Mostly Cloudy
2:56 AM 19.0 °F 13.9 °F 15.1 °F 85% 30.21 in 10.0 mi ESE 3.5 mph - N/A   Scattered Clouds
3:56 AM 17.1 °F 7.6 °F 12.9 °F 84% 30.24 in 10.0 mi SSE 6.9 mph - N/A   Overcast
4:56 AM 18.0 °F 9.8 °F 12.9 °F 81% 30.26 in 10.0 mi SSE 5.8 mph - N/A   Clear
5:56 AM 19.0 °F 13.9 °F 12.9 °F 77% 30.29 in 10.0 mi South 3.5 mph - N/A   Overcast
6:56 AM 17.1 °F 8.7 °F 10.9 °F 77% 30.31 in 10.0 mi South 5.8 mph - N/A   Overcast
7:56 AM 12.0 °F 1.5 °F 7.0 °F 80% 30.33 in 10.0 mi SSE 6.9 mph - N/A   Clear
8:56 AM 14.0 °F 5.1 °F 9.0 °F 80% 30.34 in 10.0 mi SSE 5.8 mph - N/A   Clear
9:56 AM 21.9 °F 14.5 °F 12.0 °F 66% 30.32 in 10.0 mi SSE 5.8 mph - N/A   Clear
10:56 AM 24.1 °F 16.0 °F 14.0 °F 65% 30.30 in 10.0 mi ESE 6.9 mph - N/A   Clear
11:56 AM 28.0 °F 21.7 °F 12.0 °F 51% 30.28 in 10.0 mi East 5.8 mph - N/A   Clear
12:56 PM 30.0 °F 24.1 °F 10.9 °F 45% 30.25 in 10.0 mi East 5.8 mph - N/A   Clear
1:56 PM 30.0 °F 21.1 °F 10.9 °F 45% 30.22 in 10.0 mi East 10.4 mph - N/A   Clear
2:56 PM 30.0 °F 20.5 °F 12.9 °F 49% 30.22 in 10.0 mi SE 11.5 mph - N/A   Clear
3:56 PM 28.9 °F 20.4 °F 14.0 °F 54% 30.22 in 10.0 mi SE 9.2 mph - N/A   Clear
4:56 PM 26.1 °F 16.2 °F 12.9 °F 58% 30.22 in 10.0 mi SE 10.4 mph - N/A   Clear
5:56 PM 26.1 °F 17.6 °F 10.0 °F 51% 30.22 in 10.0 mi SE 8.1 mph - N/A   Clear
6:56 PM 21.0 °F 13.4 °F 9.0 °F 60% 30.24 in 10.0 mi SE 5.8 mph - N/A   Clear
7:56 PM 18.0 °F 7.7 °F 8.1 °F 65% 30.27 in 10.0 mi SE 8.1 mph - N/A   Clear
8:56 PM 17.1 °F 8.7 °F 8.1 °F 68% 30.26 in 10.0 mi SSE 5.8 mph - N/A   Clear
9:56 PM 19.0 °F - 9.0 °F 65% 30.23 in 10.0 mi Calm Calm - N/A   Clear
10:56 PM 21.0 °F 14.6 °F 10.9 °F 65% 30.21 in 10.0 mi SE 4.6 mph - N/A   Clear
11:56 PM 15.1 °F 7.7 °F 8.1 °F 74% 30.22 in 10.0 mi ESE 4.6 mph - N/A   Clear